Regional Weather Roundup
Issued by NWS

Home | Current Version | Previous Version | Text Only | Print | Product List | Glossary On
Versions: 1 2 3 4 5 6 7 8 9 10 11 12 13 14 15 16 17 18 19 20 21 22 23 24 25 26 27 28 29 30 31 32 33 34 35 36 37 38 39 40 41 42 43 44 45 46 47 48
000
ASUS46 KPQR 300010
RWROR

OREGON REGIONAL WEATHER ROUNDUP
NATIONAL WEATHER SERVICE PORTLAND OR
500 PM PDT SAT AUG 29 2015

NOTE: "FAIR" INDICATES FEW OR NO CLOUDS BELOW 12,000 FEET WITH
NO SIGNIFICANT WEATHER AND/OR OBSTRUCTIONS TO VISIBILITY.

ORZ001>013-300100-
NORTHWEST OREGON


CITY           SKY/WX    TMP DP  RH WIND       PRES   REMARKS
ASTORIA        LGT RAIN  65  58  78 S18G32    29.77S
6HR MIN TEMP:  62; 6HR MAX TEMP:  68; 6HR PCP:  0.01;

NEWPORT        SUNNY     66  59  77 S26G37    29.89S
PORTLAND       LGT RAIN  69  59  70 S17G24    29.84R
6HR MIN TEMP:  69; 6HR MAX TEMP:  76; 6HR PCP:  0.02;

VANCOUVER WA   CLOUDY    73  54  51 S9G20     29.83S
6HR MIN TEMP:  69; 6HR MAX TEMP:  75; 6HR PCP:  0.01;

SCAPPOOSE      CLOUDY    73  52  47 VRB6G21   29.81F
6HR MIN TEMP:  68; 6HR MAX TEMP:  76; 6HR PCP: TRACE;

HILLSBORO      CLOUDY    72  52  49 SW17G25   29.81F
6HR MIN TEMP:  68; 6HR MAX TEMP:  73; 6HR PCP: TRACE;

AURORA         CLOUDY    69  56  62 S12G23    29.85S
6HR MIN TEMP:  67; 6HR MAX TEMP:  74; 6HR PCP: TRACE;

MCMINNVILLE    CLOUDY    72  54  53 SW17      29.84S
6HR MIN TEMP:  67; 6HR MAX TEMP:  73; 6HR PCP: TRACE;

SALEM          PTSUNNY   74  55  51 S16G24    29.84F
6HR MIN TEMP:  67; 6HR MAX TEMP:  75; 6HR PCP:  0.01;

CORVALLIS      PTSUNNY   72  54  53 SW15G28   29.89R
EUGENE         LGT RAIN  68  57  68 SW15      29.89R
6HR MIN TEMP:  64; 6HR MAX TEMP:  77; 6HR PCP: TRACE;

$$

ORZ021-028-300100-
SOUTHWEST OREGON


CITY           SKY/WX    TMP DP  RH WIND       PRES   REMARKS
NORTH BEND     CLOUDY    66  64  94 SW16G26   29.92S
6HR MIN TEMP:  64; 6HR MAX TEMP:  73;

BROOKINGS      LGT RAIN  64  63  97 S10       29.98F FOG
ROSEBURG       PTSUNNY   77  48  35 SW9       29.88F
6HR MIN TEMP:  71; 6HR MAX TEMP:  79;

SEXTON SUMMIT  CLOUDY    60  45  57 VRB6G28   30.00S
6HR MIN TEMP:  56; 6HR MAX TEMP:  65; 6HR PCP: TRACE;

MEDFORD        SUNNY     80  43  26 W16G29    29.88F
6HR MIN TEMP:  76; 6HR MAX TEMP:  81;

$$

ORZ014>016-041-300100-
COLUMBIA GORGE


CITY           SKY/WX    TMP DP  RH WIND       PRES   REMARKS
TROUTDALE      LGT RAIN  67  57  70 SW14G28   29.85R
6HR MIN TEMP:  67; 6HR MAX TEMP:  77; 6HR PCP:  0.02;

THE DALLES     CLOUDY    75  49  39 NW15      29.80F
6HR MIN TEMP:  74; 6HR MAX TEMP:  79;

$$

ORZ029>031-041-044-049-050-061>064-502-503-505>511-300100-
EASTERN OREGON


CITY           SKY/WX    TMP DP  RH WIND       PRES   REMARKS
REDMOND        CLOUDY    74  38  27 SW13G21   29.89F
6HR MIN TEMP:  70; 6HR MAX TEMP:  76;

BEND           PTSUNNY   73  37  27 SW16      29.91F
PRINEVILLE     PTSUNNY   73  37  27 SW14G25   29.90S
KLAMATH FALLS  MOSUNNY   73  37  27 NW16G22   29.95F
6HR MIN TEMP:  66; 6HR MAX TEMP:  76;

LAKEVIEW       SUNNY     73  34  23 SW28G35   29.98F
HERMISTON      SUNNY     82  45  27 W21G29    29.78R
6HR MIN TEMP:  73; 6HR MAX TEMP:  85;

PENDLETON      PTSUNNY   78  42  27 NW21G30   29.82S
6HR MIN TEMP:  71; 6HR MAX TEMP:  80; 6HR PCP:  0.01;

JOHN DAY       MOSUNNY   83  33  16 W20G26    29.85S
MEACHAM        PTSUNNY   67  40  37 MISG      29.93R
6HR MIN TEMP:  65; 6HR MAX TEMP:  74;

LA GRANDE      PTSUNNY   73  46  38 NW22G28   29.84R
6HR MIN TEMP:  72; 6HR MAX TEMP:  88;

BAKER CITY     PTSUNNY   77  48  35 NW12G24   29.82F
6HR MIN TEMP:  75; 6HR MAX TEMP:  87; 6HR PCP: TRACE;

BURNS          MOSUNNY   80  28  15 SW21G33   29.91F
6HR MIN TEMP:  76; 6HR MAX TEMP:  81;

ROME             N/A     89  38  16 S18G26    29.87F
6HR MIN TEMP:  83; 6HR MAX TEMP:  90;

ONTARIO        PTSUNNY   87  54  32 NE3       29.77F
6HR MIN TEMP:  71; 6HR MAX TEMP:  87; 6HR PCP:  0.01;

$$



USA.gov is the U.S. government's official web portal to all federal, state and local government web resources and services.